Home   Weather   Banja Luka   Past weeks

Flag for Bosnia-Herzegovina Past Weather in Banja Luka, Bosnia-Herzegovina — Yesterday and Last 2 Weeks

Now
72 °F

Partly sunny.


Feels Like: 77 °F
Forecast: 52 / 72 °F
Wind: 6 mph from Southwest

Location: Banja Luka

Current Time: Apr 25, 2017 at 4:51:51 pm

Latest Report: Apr 25, 2017 at 4:00 pm


Visibility: 16 mi

Pressure: 29.89 "Hg

Humidity: 36%

Dew Point: 44 °F

Location of Banja LukaLocation

Past Weather in Banja Luka — Graph

°F

Banja Luka Temperature Yesterday

Maximum temperature yesterday: 66 °F (at 4:00 pm)
Minimum temperature yesterday: 39 °F (at 8:00 am)
Average temperature yesterday: 58 °F

High & Low Weather Summary for the Past Weeks

 TemperatureHumidityPressure
High77 °F (Apr 10, 5:00 pm)96% (Apr 18, 6:00 am)30.45 "Hg (Apr 18, 6:00 am)
Low30 °F (Apr 22, 5:00 am)27% (Apr 10, 5:00 pm)29.77 "Hg (Apr 13, 5:00 pm)
Average52 °F66%30.06 "Hg
* Reported Apr 10 5:00 pm — Apr 25 3:00 pm, Banja Luka, Weather by CustomWeather, © 2017

Note: Actual official high and low records may vary slightly from our data, if they occured in-between our weather recording intervals... More about our weather records

Advertising

Banja Luka Weather History for the Previous 24 Hours

Scroll right to see more
 ConditionsComfort  
Time TempWeatherWind HumidityBarometerVisibility
3:00 pm
Tue, Apr 25
73 °FScattered clouds.7 mph34%29.91 "Hg16 mi
2:00 pm72 °FScattered clouds.6 mph37%29.93 "Hg16 mi
1:00 pm72 °FPartly sunny.6 mph37%29.94 "Hg16 mi
12:00 pm71 °FPartly sunny.7 mph38%29.95 "Hg16 mi
11:00 am67 °FPartly sunny.1 mph41%29.97 "Hg16 mi
10:00 am63 °FPartly sunny.3 mph48%29.99 "Hg16 mi
9:00 am62 °FPassing clouds.2 mph46%29.98 "Hg16 mi
8:00 am54 °FPassing clouds.1 mph64%29.99 "Hg16 mi
7:00 am50 °FScattered clouds.1 mph67%29.99 "Hg16 mi
6:00 am44 °FPassing clouds.1 mph79%30.00 "Hg12 mi
2:00 am46 °FClear.No wind86%30.04 "Hg12 mi
11:00 pm
Mon, Apr 24
55 °FPassing clouds.No wind65%30.05 "Hg12 mi
10:00 pm56 °FPassing clouds.No wind67%30.06 "Hg12 mi
9:00 pm57 °FPassing clouds.No wind64%30.05 "Hg12 mi
8:00 pm59 °FPassing clouds.No wind60%30.05 "Hg16 mi
7:00 pm62 °FPartly sunny.No wind51%30.06 "Hg16 mi
6:00 pm63 °FPartly sunny.1 mph42%30.06 "Hg16 mi
5:00 pm64 °FLight rain. Partly sunny.1 mph42%30.07 "Hg16 mi
4:00 pm66 °FPartly sunny.2 mph35%30.07 "Hg16 mi
Weather by CustomWeather, © 2017

See weather overviewHow to use our weather pages